This is the latest recevied weather packets stored in our database for station/object AH6GR. If no packets are shown the sender has not sent any weather packets the latest 10 day(s).
| Time | Temp. | Humidity | Pressure | Rain* | Wind** | Luminosity | Snow |
|---|---|---|---|---|---|---|---|
| 1787400054 | 24.44° C | 89% | 1014.8 hPa | 0 mm | - | - | - |
| 1787399193 | 24.44° C | 88% | 1015 hPa | 0 mm | - | - | - |
| 1787398202 | 24.44° C | 87% | 1015.3 hPa | 0 mm | - | - | - |
| 1787397347 | 24.44° C | 87% | 1015.3 hPa | 0 mm | - | - | - |
| 1787396414 | 24.44° C | 85% | 1015.6 hPa | 0 mm | - | - | - |
| 1787395597 | 24.44° C | 82% | 1015.5 hPa | 0 mm | - | - | - |
| 1787394625 | 25° C | 80% | 1015.4 hPa | 0 mm | - | - | - |
| 1787393770 | 25° C | 81% | 1015.2 hPa | 0 mm | - | - | - |
| 1787392839 | 24.44° C | 83% | 1015.5 hPa | 0 mm | - | - | - |
| 1787391910 | 24.44° C | 85% | 1015.5 hPa | 0 mm | - | - | - |
| 1787391059 | 24.44° C | 86% | 1015.6 hPa | 0 mm | - | - | - |
| 1787390128 | 24.44° C | 88% | 1015.6 hPa | 0 mm | - | - | - |
| 1787389206 | 24.44° C | 88% | 1015.7 hPa | 0 mm | - | - | - |
| 1787388347 | 24.44° C | 88% | 1015.7 hPa | 0 mm | - | - | - |
| 1787387408 | 24.44° C | 88% | 1015.8 hPa | 0 mm | - | - | - |
| 1787386551 | 24.44° C | 88% | 1015.7 hPa | 0 mm | - | - | - |
| 1787385624 | 24.44° C | 87% | 1015.7 hPa | 0 mm | - | - | - |
| 1787384764 | 24.44° C | 87% | 1015.7 hPa | 0 mm | - | - | - |
| 1787383846 | 24.44° C | 87% | 1015.6 hPa | 0 mm | - | - | - |
| 1787382922 | 24.44° C | 88% | 1015.6 hPa | 0 mm | - | - | - |
| 1787382057 | 24.44° C | 88% | 1015.3 hPa | 0 mm | - | - | - |
| 1787381125 | 24.44° C | 86% | 1015.1 hPa | 0 mm | - | - | - |
| 1787380269 | 24.44° C | 88% | 1015 hPa | 0 mm | - | - | - |
| 1787379340 | 25° C | 87% | 1014.9 hPa | 0 mm | - | - | - |
| 1787378409 | 25° C | 86% | 1014.7 hPa | 0 mm | - | - | - |
* Rain latest hour (hover to see other rain measurements)
** Current wind speed in m/s (hover to see current wind gust speed)